When you browse on this site, cookies collect data to enhance your experience and personalize the content and advertising you see.
Visit our Privacy Policy to learn more. By continuing to use the site, you agree to this use of cookies and data.
  • In Schweiz
  • Länderverzeichnis
  • Für 7 Tage
  • Wassertemperatur
  • Satellitenkarten
  • Wetterkarte
  • Widgets
  • user-avatar
    Anmelden

    Stündliche Wetter Tovsten'ke

    Heute, 26 April, Freitag

    Zeit Temperatur Niederschläge Wind Luftdruck Luftfeuchtigkeit
    00:00 +12°C° 0 mm 4 m/S 739 mmHg 81%
    01:00 +11°C° 0 mm 4 m/S 739 mmHg 83%
    02:00 +10°C° 0 mm 4 m/S 738 mmHg 85%
    03:00 +10°C° 0 mm 3 m/S 738 mmHg 86%
    04:00 +9°C° 0 mm 3 m/S 738 mmHg 86%
    05:00 +9°C° 0 mm 3 m/S 738 mmHg 87%
    06:00 +10°C° 0 mm 3 m/S 738 mmHg 83%
    07:00 +11°C° 0 mm 3 m/S 738 mmHg 80%
    08:00 +12°C° 0 mm 4 m/S 738 mmHg 77%
    09:00 +15°C° 0 mm 4 m/S 738 mmHg 71%
    10:00 +18°C° 0 mm 4 m/S 738 mmHg 65%
    11:00 +20°C° 0 mm 4 m/S 737 mmHg 59%
    12:00 +21°C° 0 mm 4 m/S 737 mmHg 56%
    13:00 +22°C° 0 mm 4 m/S 737 mmHg 54%
    14:00 +25°C° 0 mm 5 m/S 737 mmHg 51%
    15:00 +23°C° 0 mm 5 m/S 736 mmHg 52%
    16:00 +23°C° 0 mm 5 m/S 736 mmHg 54%
    17:00 +23°C° 0 mm 5 m/S 736 mmHg 55%
    18:00 +21°C° 0.5 mm 4 m/S 736 mmHg 62%
    19:00 +20°C° 0.5 mm 4 m/S 735 mmHg 68%
    20:00 +18°C° 0.5 mm 4 m/S 735 mmHg 75%
    21:00 +17°C° 0.7 mm 4 m/S 735 mmHg 79%
    22:00 +15°C° 0.7 mm 4 m/S 735 mmHg 83%
    23:00 +15°C° 0.7 mm 4 m/S 735 mmHg 87%

    Morgen, 27 April, Samstag

    Zeit Temperatur Niederschläge Wind Luftdruck Luftfeuchtigkeit
    00:00 +14°C° 0 mm 4 m/S 735 mmHg 87%
    01:00 +14°C° 0 mm 3 m/S 735 mmHg 88%
    02:00 +14°C° 0 mm 3 m/S 734 mmHg 89%
    03:00 +13°C° 0.1 mm 3 m/S 734 mmHg 88%
    04:00 +13°C° 0.1 mm 3 m/S 734 mmHg 87%
    05:00 +13°C° 0.1 mm 3 m/S 733 mmHg 86%
    06:00 +14°C° 0.2 mm 3 m/S 733 mmHg 84%
    07:00 +14°C° 0.2 mm 3 m/S 733 mmHg 81%
    08:00 +16°C° 0.2 mm 2 m/S 734 mmHg 78%
    09:00 +18°C° 0 mm 3 m/S 733 mmHg 73%
    10:00 +19°C° 0 mm 3 m/S 733 mmHg 68%
    11:00 +21°C° 0 mm 3 m/S 733 mmHg 63%
    12:00 +22°C° 0 mm 3 m/S 733 mmHg 60%
    13:00 +23°C° 0 mm 4 m/S 733 mmHg 57%
    14:00 +25°C° 0 mm 4 m/S 732 mmHg 53%
    15:00 +25°C° 0 mm 4 m/S 732 mmHg 54%
    16:00 +25°C° 0 mm 4 m/S 732 mmHg 54%
    17:00 +25°C° 0 mm 3 m/S 731 mmHg 54%
    18:00 +22°C° 1.5 mm 3 m/S 731 mmHg 62%
    19:00 +20°C° 1.5 mm 2 m/S 731 mmHg 70%
    20:00 +18°C° 1.5 mm 2 m/S 731 mmHg 77%
    21:00 +18°C° 3 mm 2 m/S 731 mmHg 80%
    22:00 +17°C° 3 mm 3 m/S 732 mmHg 83%
    23:00 +17°C° 3 mm 4 m/S 732 mmHg 86%

    übermorgen, 28 April, Sonntag

    Zeit Temperatur Niederschläge Wind Luftdruck Luftfeuchtigkeit
    00:00 +16°C° 0.3 mm 3 m/S 732 mmHg 87%
    01:00 +16°C° 0.3 mm 2 m/S 732 mmHg 88%
    02:00 +15°C° 0.3 mm 2 m/S 732 mmHg 90%
    03:00 +15°C° 0 mm 2 m/S 731 mmHg 91%
    04:00 +14°C° 0 mm 1 m/S 731 mmHg 92%
    05:00 +14°C° 0 mm 1 m/S 731 mmHg 93%
    06:00 +14°C° 0 mm 2 m/S 731 mmHg 90%
    07:00 +14°C° 0 mm 3 m/S 731 mmHg 88%
    08:00 +15°C° 0 mm 4 m/S 731 mmHg 85%
    09:00 +15°C° 0 mm 4 m/S 731 mmHg 84%
    10:00 +15°C° 0 mm 4 m/S 731 mmHg 83%
    11:00 +17°C° 0 mm 4 m/S 731 mmHg 81%
    12:00 +17°C° 0.1 mm 4 m/S 731 mmHg 80%
    13:00 +18°C° 0.1 mm 3 m/S 731 mmHg 78%
    14:00 +18°C° 0.1 mm 3 m/S 731 mmHg 77%
    15:00 +19°C° 0.1 mm 3 m/S 731 mmHg 76%
    16:00 +19°C° 0.1 mm 3 m/S 731 mmHg 75%
    17:00 +19°C° 0.1 mm 3 m/S 731 mmHg 74%
    18:00 +18°C° 0.8 mm 3 m/S 731 mmHg 79%
    19:00 +17°C° 0.8 mm 3 m/S 731 mmHg 83%
    20:00 +16°C° 0.8 mm 3 m/S 731 mmHg 88%
    21:00 +15°C° 0.4 mm 2 m/S 731 mmHg 89%
    22:00 +15°C° 0.4 mm 2 m/S 731 mmHg 90%
    23:00 +15°C° 0.4 mm 2 m/S 731 mmHg 91%

    29 April, Montag

    Zeit Temperatur Niederschläge Wind Luftdruck Luftfeuchtigkeit
    00:00 +14°C° 0.3 mm 2 m/S 731 mmHg 92%
    01:00 +14°C° 0.3 mm 2 m/S 731 mmHg 93%
    02:00 +13°C° 0.3 mm 1 m/S 731 mmHg 93%
    03:00 +13°C° 0.4 mm 1 m/S 731 mmHg 94%
    04:00 +13°C° 0.4 mm 1 m/S 731 mmHg 95%
    05:00 +12°C° 0.4 mm 1 m/S 730 mmHg 95%
    06:00 +13°C° 0 mm 1 m/S 731 mmHg 93%
    07:00 +14°C° 0 mm 1 m/S 731 mmHg 91%
    08:00 +15°C° 0 mm 1 m/S 731 mmHg 89%
    09:00 +15°C° 0 mm 2 m/S 731 mmHg 87%
    10:00 +16°C° 0 mm 2 m/S 731 mmHg 85%
    11:00 +16°C° 0 mm 2 m/S 731 mmHg 83%
    12:00 +17°C° 0.1 mm 2 m/S 731 mmHg 79%
    13:00 +18°C° 0.1 mm 2 m/S 731 mmHg 74%
    14:00 +19°C° 0.1 mm 2 m/S 730 mmHg 69%
    15:00 +20°C° 0.3 mm 1 m/S 730 mmHg 68%
    16:00 +20°C° 0.3 mm 1 m/S 730 mmHg 67%
    17:00 +20°C° 0.3 mm 1 m/S 730 mmHg 66%
    18:00 +18°C° 0.7 mm 1 m/S 730 mmHg 73%
    19:00 +16°C° 0.7 mm 1 m/S 730 mmHg 80%
    20:00 +15°C° 0.7 mm 2 m/S 730 mmHg 87%
    21:00 +14°C° 0.5 mm 2 m/S 730 mmHg 87%
    22:00 +14°C° 0.5 mm 2 m/S 730 mmHg 88%
    23:00 +13°C° 0.5 mm 2 m/S 730 mmHg 89%

    30 April, Dienstag

    Zeit Temperatur Niederschläge Wind Luftdruck Luftfeuchtigkeit
    00:00 +13°C° 0 mm 2 m/S 730 mmHg 91%
    01:00 +12°C° 0 mm 2 m/S 730 mmHg 93%
    02:00 +12°C° 0 mm 2 m/S 730 mmHg 94%
    03:00 +10°C° 0.1 mm 2 m/S 730 mmHg 95%
    04:00 +10°C° 0.1 mm 2 m/S 730 mmHg 96%
    05:00 +11°C° 0.1 mm 1 m/S 730 mmHg 97%
    06:00 +12°C° 0.1 mm 2 m/S 730 mmHg 94%
    07:00 +13°C° 0.1 mm 2 m/S 730 mmHg 91%
    08:00 +14°C° 0.1 mm 2 m/S 730 mmHg 88%
    09:00 +14°C° 0.3 mm 2 m/S 730 mmHg 86%
    10:00 +15°C° 0.3 mm 2 m/S 730 mmHg 84%
    11:00 +14°C° 0.3 mm 3 m/S 730 mmHg 82%
    12:00 +14°C° 0.9 mm 4 m/S 730 mmHg 82%
    13:00 +15°C° 0.9 mm 5 m/S 730 mmHg 81%
    14:00 +15°C° 0.9 mm 6 m/S 730 mmHg 80%
    15:00 +14°C° 0.4 mm 6 m/S 730 mmHg 82%
    16:00 +14°C° 0.4 mm 6 m/S 729 mmHg 83%
    17:00 +13°C° 0.4 mm 5 m/S 729 mmHg 84%
    18:00 +12°C° 0.3 mm 5 m/S 730 mmHg 85%
    19:00 +12°C° 0.3 mm 5 m/S 730 mmHg 87%
    20:00 +10°C° 0.3 mm 5 m/S 730 mmHg 88%
    21:00 +9°C° 0 mm 5 m/S 730 mmHg 88%
    22:00 +9°C° 0 mm 5 m/S 731 mmHg 88%
    23:00 +8°C° 0 mm 4 m/S 731 mmHg 89%

    1 Mai, Mittwoch

    Zeit Temperatur Niederschläge Wind Luftdruck Luftfeuchtigkeit
    00:00 +8°C° 0 mm 5 m/S 731 mmHg 89%
    01:00 +8°C° 0 mm 5 m/S 731 mmHg 89%
    02:00 +7°C° 0 mm 5 m/S 731 mmHg 89%
    03:00 +7°C° 0 mm 4 m/S 731 mmHg 89%
    04:00 +7°C° 0 mm 4 m/S 731 mmHg 88%
    05:00 +7°C° 0 mm 4 m/S 731 mmHg 88%
    06:00 +7°C° 0 mm 5 m/S 731 mmHg 86%
    07:00 +7°C° 0 mm 5 m/S 731 mmHg 85%
    08:00 +8°C° 0 mm 5 m/S 731 mmHg 83%
    09:00 +9°C° 0 mm 5 m/S 732 mmHg 77%
    10:00 +10°C° 0 mm 5 m/S 732 mmHg 71%
    11:00 +12°C° 0 mm 5 m/S 732 mmHg 65%
    12:00 +13°C° 0.1 mm 5 m/S 732 mmHg 61%
    13:00 +13°C° 0.1 mm 5 m/S 732 mmHg 57%
    14:00 +14°C° 0.1 mm 5 m/S 731 mmHg 53%
    15:00 +14°C° 0 mm 5 m/S 731 mmHg 52%
    16:00 +14°C° 0 mm 5 m/S 731 mmHg 52%
    17:00 +14°C° 0 mm 5 m/S 731 mmHg 52%
    18:00 +12°C° 0 mm 4 m/S 731 mmHg 57%
    19:00 +11°C° 0 mm 3 m/S 732 mmHg 63%
    20:00 +9°C° 0 mm 3 m/S 732 mmHg 68%
    21:00 +9°C° 0 mm 2 m/S 732 mmHg 69%
    22:00 +8°C° 0 mm 2 m/S 732 mmHg 71%
    23:00 +7°C° 0 mm 2 m/S 732 mmHg 72%
    Mehr zeigen